UAL839 KLAX-YSSY

Flight info

Callsign UAL839
Flight time N/A
Altitude 32000
Route ZILLI5 FICKY B581 CAMOS/N0480F340 B581 WACOS/N0473F360 B581 BIDNA/N0467F380 B581 NN G224 NF B450 LHI H258 RIKNI N774 MARLN
Aircraft B772/H-SDE2E3FGHIJ5LORVWXY/LB1D1

Departure

Time 2026-04-26 02:27
Airport Los Angeles International Airport (KLAX)

Arrival

Time N/A
Airport Sydney Kingsford Smith International Airport (YSSY)
Time Latitude Longitude Altitude Speed Heading
2026-04-26 00:36 33.94102 -118.39907 140 ft 0 kts 306°
2026-04-26 02:00 33.94094 -118.39894 140 ft 4 kts 294°
2026-04-26 02:00 33.94089 -118.39870 140 ft 4 kts 250°
2026-04-26 02:00 33.94100 -118.39852 140 ft 4 kts 205°
2026-04-26 02:00 33.94125 -118.39843 140 ft 4 kts 181°
2026-04-26 02:01 33.94137 -118.39843 140 ft 0 kts 174°
2026-04-26 02:05 33.94136 -118.39843 140 ft 1 kts 174°
2026-04-26 02:05 33.94115 -118.39840 140 ft 3 kts 175°
2026-04-26 02:05 33.94092 -118.39839 140 ft 3 kts 179°
2026-04-26 02:05 33.94071 -118.39838 140 ft 3 kts 178°
2026-04-26 02:06 33.94068 -118.39838 140 ft 0 kts 177°
2026-04-26 02:10 33.94067 -118.39838 140 ft 0 kts 177°
2026-04-26 02:13 33.94066 -118.39838 140 ft 1 kts 177°
2026-04-26 02:13 33.94065 -118.39838 140 ft 0 kts 177°
2026-04-26 02:14 33.94064 -118.39838 140 ft 1 kts 177°
2026-04-26 02:14 33.94034 -118.39836 140 ft 6 kts 177°
2026-04-26 02:14 33.93990 -118.39840 140 ft 6 kts 211°
2026-04-26 02:14 33.93971 -118.39888 140 ft 7 kts 262°
2026-04-26 02:15 33.93962 -118.39968 140 ft 12 kts 262°
2026-04-26 02:15 33.93951 -118.40068 140 ft 12 kts 262°
2026-04-26 02:15 33.93941 -118.40167 140 ft 12 kts 263°
2026-04-26 02:15 33.93931 -118.40261 140 ft 11 kts 263°
2026-04-26 02:16 33.93923 -118.40352 140 ft 11 kts 264°
2026-04-26 02:16 33.93915 -118.40439 140 ft 10 kts 264°
2026-04-26 02:16 33.93907 -118.40521 140 ft 10 kts 264°
2026-04-26 02:16 33.93901 -118.40587 140 ft 9 kts 264°
2026-04-26 02:17 33.93894 -118.40664 140 ft 9 kts 264°
2026-04-26 02:17 33.93886 -118.40737 140 ft 9 kts 261°
2026-04-26 02:17 33.93877 -118.40808 140 ft 8 kts 261°
2026-04-26 02:17 33.93869 -118.40874 140 ft 8 kts 262°
2026-04-26 02:18 33.93861 -118.40938 140 ft 8 kts 262°
2026-04-26 02:18 33.93856 -118.41000 140 ft 7 kts 264°
2026-04-26 02:18 33.93851 -118.41058 140 ft 7 kts 264°
2026-04-26 02:18 33.93846 -118.41115 140 ft 7 kts 264°
2026-04-26 02:19 33.93851 -118.41169 140 ft 7 kts 310°
2026-04-26 02:19 33.93892 -118.41184 140 ft 6 kts 354°
2026-04-26 02:19 33.93935 -118.41190 140 ft 6 kts 354°
2026-04-26 02:19 33.93978 -118.41196 140 ft 6 kts 353°
2026-04-26 02:20 33.94019 -118.41202 140 ft 6 kts 353°
2026-04-26 02:20 33.94062 -118.41209 140 ft 7 kts 353°
2026-04-26 02:20 33.94129 -118.41219 140 ft 13 kts 353°
2026-04-26 02:20 33.94232 -118.41235 140 ft 17 kts 353°
2026-04-26 02:21 33.94345 -118.41251 140 ft 16 kts 354°
2026-04-26 02:21 33.94449 -118.41265 140 ft 15 kts 353°
2026-04-26 02:21 33.94548 -118.41280 140 ft 14 kts 353°
2026-04-26 02:21 33.94640 -118.41294 140 ft 13 kts 353°
2026-04-26 02:22 33.94728 -118.41301 140 ft 12 kts
2026-04-26 02:22 33.94795 -118.41253 140 ft 12 kts 68°
2026-04-26 02:22 33.94807 -118.41155 140 ft 12 kts 84°
2026-04-26 02:22 33.94816 -118.41062 140 ft 11 kts 83°
2026-04-26 02:23 33.94826 -118.40971 140 ft 11 kts 83°
2026-04-26 02:23 33.94834 -118.40885 140 ft 10 kts 83°
2026-04-26 02:23 33.94843 -118.40802 140 ft 10 kts 83°
2026-04-26 02:23 33.94851 -118.40724 140 ft 9 kts 83°
2026-04-26 02:24 33.94861 -118.40642 140 ft 11 kts 85°
2026-04-26 02:24 33.94869 -118.40543 140 ft 13 kts 83°
2026-04-26 02:24 33.94881 -118.40427 140 ft 15 kts 82°
2026-04-26 02:24 33.94896 -118.40298 140 ft 15 kts 82°
2026-04-26 02:25 33.94907 -118.40190 140 ft 5 kts 83°
2026-04-26 02:25 33.94912 -118.40179 140 ft 0 kts 40°
2026-04-26 02:25 33.94918 -118.40176 140 ft 1 kts 12°
2026-04-26 02:26 33.94931 -118.40178 140 ft 4 kts 349°
2026-04-26 02:26 33.94979 -118.40189 140 ft 9 kts 346°
2026-04-26 02:26 33.95006 -118.40231 140 ft 7 kts 284°
2026-04-26 02:26 33.95006 -118.40301 140 ft 11 kts 262°
2026-04-26 02:27 33.94979 -118.40548 140 ft 60 kts 263°
2026-04-26 02:27 33.94900 -118.41324 140 ft 125 kts 263°
2026-04-26 02:27 33.94770 -118.42599 153 ft 179 kts 262°
2026-04-26 02:27 33.94617 -118.44121 799 ft 183 kts 262°
2026-04-26 02:28 33.94460 -118.45678 1619 ft 191 kts 262°
2026-04-26 02:28 33.94301 -118.47242 2455 ft 184 kts 262°
2026-04-26 02:28 33.94210 -118.48763 2942 ft 184 kts 266°
2026-04-26 02:28 33.94207 -118.50342 3199 ft 193 kts 269°
2026-04-26 02:29 33.94208 -118.51451 3366 ft 198 kts 267°
2026-04-26 02:29 33.94124 -118.53149 3542 ft 210 kts 264°
2026-04-26 02:29 33.93972 -118.54926 3714 ft 222 kts 263°
2026-04-26 02:29 33.93791 -118.56819 3921 ft 235 kts 263°
2026-04-26 02:30 33.93613 -118.58839 4161 ft 248 kts 263°
2026-04-26 02:30 33.93443 -118.60926 4634 ft 253 kts 264°
2026-04-26 02:30 33.93274 -118.63044 5164 ft 255 kts 264°
2026-04-26 02:30 33.93104 -118.65187 5656 ft 259 kts 264°
2026-04-26 02:31 33.92942 -118.67351 6196 ft 261 kts 264°
2026-04-26 02:31 33.92775 -118.69540 6710 ft 263 kts 264°
2026-04-26 02:31 33.92604 -118.71741 7241 ft 266 kts 264°
2026-04-26 02:31 33.92429 -118.73965 7755 ft 267 kts 264°
2026-04-26 02:32 33.92254 -118.76193 8308 ft 268 kts 263°
2026-04-26 02:32 33.92076 -118.78439 8785 ft 271 kts 263°
2026-04-26 02:32 33.91898 -118.80705 9311 ft 272 kts 263°
2026-04-26 02:32 33.91728 -118.82969 9883 ft 271 kts 264°
2026-04-26 02:33 33.91681 -118.85259 10321 ft 277 kts 268°
2026-04-26 02:33 33.91744 -118.87647 10491 ft 293 kts 270°
2026-04-26 02:33 33.91866 -118.90165 10629 ft 310 kts 271°
2026-04-26 02:33 33.91982 -118.92828 10772 ft 327 kts 270°
2026-04-26 02:34 33.92071 -118.95630 11044 ft 340 kts 269°
2026-04-26 02:34 33.91963 -118.98507 11376 ft 348 kts 260°
2026-04-26 02:34 33.91474 -119.01378 11922 ft 352 kts 255°
2026-04-26 02:34 33.90852 -119.04226 12614 ft 352 kts 252°
2026-04-26 02:35 33.90095 -119.07032 13235 ft 354 kts 249°
2026-04-26 02:35 33.89252 -119.09827 13866 ft 356 kts 247°
2026-04-26 02:35 33.88328 -119.12592 14451 ft 357 kts 246°
2026-04-26 02:35 33.87342 -119.15342 15036 ft 359 kts 245°
2026-04-26 02:36 33.86314 -119.18094 15582 ft 361 kts 244°
2026-04-26 02:36 33.85281 -119.20863 16124 ft 364 kts 244°
2026-04-26 02:36 33.84253 -119.23650 16677 ft 365 kts 244°
2026-04-26 02:36 33.83225 -119.26453 17187 ft 367 kts 244°
2026-04-26 02:37 33.82191 -119.29273 17659 ft 370 kts 244°
2026-04-26 02:37 33.81052 -119.32040 18129 ft 369 kts 237°
2026-04-26 02:37 33.79519 -119.34524 18559 ft 371 kts 228°
2026-04-26 02:37 33.77768 -119.36680 19004 ft 373 kts 224°
2026-04-26 02:38 33.75818 -119.38820 19476 ft 375 kts 221°
2026-04-26 02:38 33.73815 -119.40831 19921 ft 376 kts 220°
2026-04-26 02:38 33.71759 -119.42786 20318 ft 379 kts 219°
2026-04-26 02:38 33.69664 -119.44730 20729 ft 381 kts 218°
2026-04-26 02:39 33.67564 -119.46673 21141 ft 382 kts 218°
2026-04-26 02:39 33.65455 -119.48630 21499 ft 385 kts 218°
2026-04-26 02:39 33.63336 -119.50600 21920 ft 386 kts 219°
2026-04-26 02:39 33.61210 -119.52578 22354 ft 387 kts 219°
2026-04-26 02:40 33.59089 -119.54552 22742 ft 388 kts 219°
2026-04-26 02:40 33.56945 -119.56547 23077 ft 391 kts 219°
2026-04-26 02:40 33.54788 -119.58554 23454 ft 392 kts 219°
2026-04-26 02:40 33.52631 -119.60564 23860 ft 393 kts 219°
2026-04-26 02:41 33.50506 -119.62563 24209 ft 395 kts 219°
2026-04-26 02:41 33.48341 -119.64595 24539 ft 396 kts 219°
2026-04-26 02:41 33.46162 -119.66634 24857 ft 398 kts 219°
2026-04-26 02:41 33.43974 -119.68676 25195 ft 399 kts 219°
2026-04-26 02:42 33.41775 -119.70725 25505 ft 401 kts 219°
2026-04-26 02:42 33.39573 -119.72774 25845 ft 401 kts 219°
2026-04-26 02:42 33.37366 -119.74826 26104 ft 404 kts 219°
2026-04-26 02:42 33.35147 -119.76887 26404 ft 404 kts 219°
2026-04-26 02:43 33.30682 -119.81027 26972 ft 406 kts 219°
2026-04-26 02:43 33.28440 -119.83104 27232 ft 408 kts 219°
2026-04-26 02:43 33.26196 -119.85182 27497 ft 408 kts 219°
2026-04-26 02:44 33.23953 -119.87257 27778 ft 409 kts 219°
2026-04-26 02:44 33.21701 -119.89339 28020 ft 409 kts 219°
2026-04-26 02:44 33.19448 -119.91422 28209 ft 411 kts 219°
2026-04-26 02:44 33.17180 -119.93515 28452 ft 411 kts 219°
2026-04-26 02:45 33.14909 -119.95611 28624 ft 413 kts 220°
2026-04-26 02:45 33.12636 -119.97707 28851 ft 413 kts 220°
2026-04-26 02:45 33.10367 -119.99797 29102 ft 413 kts 220°
2026-04-26 02:45 33.08089 -120.01895 29241 ft 415 kts 220°
2026-04-26 02:46 33.03494 -120.06122 29458 ft 419 kts 220°
2026-04-26 02:46 33.01186 -120.08244 29703 ft 418 kts 220°
2026-04-26 02:46 32.98878 -120.10363 29834 ft 419 kts 220°
2026-04-26 02:47 32.96571 -120.12481 30021 ft 419 kts 220°
2026-04-26 02:47 32.94262 -120.14599 30196 ft 419 kts 220°
2026-04-26 02:47 32.91956 -120.16712 30384 ft 418 kts 220°
2026-04-26 02:47 32.89652 -120.18822 30574 ft 417 kts 220°
2026-04-26 02:48 32.87360 -120.20920 30785 ft 416 kts 221°
2026-04-26 02:48 32.85066 -120.23020 30963 ft 416 kts 221°
2026-04-26 02:48 32.82810 -120.25099 31132 ft 415 kts 221°
2026-04-26 02:48 32.80530 -120.27190 31356 ft 414 kts 221°
2026-04-26 02:49 32.78253 -120.29270 31523 ft 413 kts 221°
2026-04-26 02:49 32.75971 -120.31350 31669 ft 413 kts 221°
2026-04-26 02:49 32.73695 -120.33421 31869 ft 411 kts 221°
2026-04-26 02:49 32.71426 -120.35484 31971 ft 412 kts 221°
2026-04-26 02:50 32.66859 -120.39632 31982 ft 416 kts 221°
2026-04-26 02:50 32.62248 -120.43818 31981 ft 419 kts 221°
2026-04-26 02:51 32.57608 -120.48030 31982 ft 421 kts 221°
2026-04-26 02:51 32.52932 -120.52264 31974 ft 423 kts 221°
2026-04-26 02:52 32.48244 -120.56503 31974 ft 425 kts 221°
2026-04-26 02:52 32.43538 -120.60752 31972 ft 426 kts 221°
2026-04-26 02:53 32.38811 -120.65015 31972 ft 427 kts 221°
2026-04-26 02:53 32.34083 -120.69274 31971 ft 427 kts 221°
2026-04-26 02:54 32.29362 -120.73546 31969 ft 427 kts 221°
2026-04-26 02:54 32.24646 -120.77816 31970 ft 427 kts 221°
2026-04-26 02:55 32.19940 -120.82055 31969 ft 428 kts 221°
2026-04-26 02:55 32.15192 -120.86323 31968 ft 429 kts 221°
2026-04-26 02:56 32.10440 -120.90587 31968 ft 430 kts 221°
2026-04-26 02:56 32.05675 -120.94855 31968 ft 430 kts 221°
2026-04-26 02:57 32.00907 -120.99121 31967 ft 431 kts 221°
2026-04-26 02:57 31.96131 -121.03388 31966 ft 430 kts 221°
2026-04-26 02:58 31.91377 -121.07629 31965 ft 427 kts 222°
2026-04-26 02:58 31.86645 -121.11846 31965 ft 426 kts 222°
2026-04-26 02:59 31.81921 -121.16050 31965 ft 428 kts 222°
2026-04-26 02:59 31.77175 -121.20294 31964 ft 428 kts 222°
2026-04-26 03:00 31.72414 -121.24518 31963 ft 429 kts 222°
2026-04-26 03:00 31.67643 -121.28739 31962 ft 430 kts 222°
2026-04-26 03:01 31.62868 -121.32958 31962 ft 430 kts 222°
2026-04-26 03:01 31.58184 -121.37306 31967 ft 426 kts 228°
2026-04-26 03:02 31.54419 -121.42613 31969 ft 423 kts 237°
2026-04-26 03:02 31.51185 -121.48359 31968 ft 422 kts 240°
2026-04-26 03:03 31.48172 -121.54267 31968 ft 423 kts 240°
2026-04-26 03:03 31.45178 -121.60193 31967 ft 423 kts 240°
2026-04-26 03:04 31.42176 -121.66112 31967 ft 423 kts 240°
2026-04-26 03:04 31.39172 -121.72023 31967 ft 423 kts 240°
2026-04-26 03:05 31.36187 -121.77949 31967 ft 423 kts 241°
2026-04-26 03:05 31.33200 -121.83877 31966 ft 423 kts 241°
2026-04-26 03:06 31.30221 -121.89752 31964 ft 423 kts 241°
2026-04-26 03:06 31.27192 -121.95703 31964 ft 423 kts 241°
2026-04-26 03:07 31.24201 -122.01569 31963 ft 422 kts 240°
2026-04-26 03:07 31.21191 -122.07460 31963 ft 423 kts 241°
2026-04-26 03:08 31.18168 -122.13368 31964 ft 424 kts 241°
2026-04-26 03:08 31.15145 -122.19264 31965 ft 423 kts 241°
2026-04-26 03:09 31.12123 -122.25152 31964 ft 423 kts 241°
2026-04-26 03:09 31.09097 -122.31036 31961 ft 422 kts 241°
2026-04-26 03:10 31.06079 -122.36900 31961 ft 422 kts 241°
2026-04-26 03:10 31.03056 -122.42761 31962 ft 421 kts 241°
2026-04-26 03:11 31.00032 -122.48616 31961 ft 421 kts 241°
2026-04-26 03:11 30.97008 -122.54463 31957 ft 421 kts 241°
2026-04-26 03:12 30.94496 -122.59314 31959 ft 421 kts 241°
2026-04-26 03:12 30.91467 -122.65154 31957 ft 421 kts 241°
2026-04-26 03:13 30.88443 -122.70977 31956 ft 420 kts 241°
2026-04-26 03:13 30.85419 -122.76789 31956 ft 420 kts 241°
2026-04-26 03:14 30.82405 -122.82602 31956 ft 419 kts 242°
2026-04-26 03:14 30.79393 -122.88404 31952 ft 419 kts 241°
2026-04-26 03:15 30.76362 -122.94193 31954 ft 420 kts 242°
2026-04-26 03:15 30.73314 -123.00001 31954 ft 421 kts 242°
2026-04-26 03:16 30.70257 -123.05819 31954 ft 422 kts 242°
2026-04-26 03:16 30.67196 -123.11644 31953 ft 422 kts 242°
2026-04-26 03:17 30.64121 -123.17440 31953 ft 421 kts 242°
2026-04-26 03:17 30.61025 -123.23216 31956 ft 421 kts 242°
2026-04-26 03:18 30.57946 -123.28953 31958 ft 421 kts 242°
2026-04-26 03:18 30.54824 -123.34763 31957 ft 421 kts 242°
2026-04-26 03:19 30.51745 -123.40485 31957 ft 421 kts 242°
2026-04-26 03:19 30.48643 -123.46244 31956 ft 421 kts 242°
2026-04-26 03:20 30.45573 -123.52018 31956 ft 420 kts 242°
2026-04-26 03:20 30.42498 -123.57774 31956 ft 420 kts 242°
2026-04-26 03:21 30.39410 -123.63527 31956 ft 420 kts 242°
2026-04-26 03:21 30.36322 -123.69259 31954 ft 419 kts 242°
2026-04-26 03:22 30.33252 -123.74950 31956 ft 420 kts 242°
2026-04-26 03:22 30.30158 -123.80671 31958 ft 419 kts 242°
2026-04-26 03:23 30.27064 -123.86385 31958 ft 419 kts 242°
2026-04-26 03:23 30.23964 -123.92104 31959 ft 419 kts 242°
2026-04-26 03:24 30.20869 -123.97803 31959 ft 418 kts 242°
2026-04-26 03:24 30.17772 -124.03495 31957 ft 418 kts 242°
2026-04-26 03:25 30.14675 -124.09182 31958 ft 418 kts 242°
2026-04-26 03:25 30.11574 -124.14868 31958 ft 418 kts 242°
2026-04-26 03:26 30.08471 -124.20549 31958 ft 418 kts 242°
2026-04-26 03:26 30.05362 -124.26234 31955 ft 419 kts 242°
2026-04-26 03:27 30.02248 -124.31919 31953 ft 419 kts 242°
2026-04-26 03:27 29.99148 -124.37570 31954 ft 419 kts 242°
2026-04-26 03:28 29.96030 -124.43246 31956 ft 419 kts 242°
2026-04-26 03:28 29.92905 -124.48927 31961 ft 420 kts 242°
2026-04-26 03:29 29.89775 -124.54611 31962 ft 420 kts 242°
2026-04-26 03:29 29.86636 -124.60301 31965 ft 420 kts 242°
2026-04-26 03:30 29.83498 -124.65982 31965 ft 421 kts 242°
2026-04-26 03:30 29.80350 -124.71673 31964 ft 421 kts 242°
2026-04-26 03:31 29.77197 -124.77365 31965 ft 422 kts 242°
2026-04-26 03:31 29.74034 -124.83066 31966 ft 422 kts 242°
2026-04-26 03:32 29.70870 -124.88762 31966 ft 423 kts 242°
2026-04-26 03:32 29.67693 -124.94473 31965 ft 423 kts 242°
2026-04-26 03:33 29.64537 -125.00138 31964 ft 424 kts 242°
2026-04-26 03:33 29.61353 -125.05847 31964 ft 424 kts 242°
2026-04-26 03:34 29.58163 -125.11557 31965 ft 425 kts 242°
2026-04-26 03:34 29.54966 -125.17272 31965 ft 425 kts 242°
2026-04-26 03:35 29.51761 -125.22995 31965 ft 426 kts 242°
2026-04-26 03:35 29.48554 -125.28712 31964 ft 426 kts 242°
2026-04-26 03:36 29.45344 -125.34425 31963 ft 426 kts 242°
2026-04-26 03:36 29.42133 -125.40133 31964 ft 426 kts 242°
2026-04-26 03:37 29.38919 -125.45840 31964 ft 426 kts 242°
2026-04-26 03:37 29.35702 -125.51542 31964 ft 426 kts 241°
2026-04-26 03:38 29.32501 -125.57209 31964 ft 426 kts 241°
2026-04-26 03:38 29.29276 -125.62910 31963 ft 427 kts 241°
2026-04-26 03:39 29.26041 -125.68621 31963 ft 427 kts 241°
2026-04-26 03:39 29.22805 -125.74325 31963 ft 427 kts 241°
2026-04-26 03:40 29.19566 -125.80028 31964 ft 427 kts 241°
2026-04-26 03:40 29.16320 -125.85735 31964 ft 428 kts 241°
2026-04-26 03:41 29.13070 -125.91442 31965 ft 428 kts 241°
2026-04-26 03:41 29.09817 -125.97145 31965 ft 429 kts 241°
2026-04-26 03:42 29.06553 -126.02860 31965 ft 429 kts 241°
2026-04-26 03:42 29.03299 -126.08550 31965 ft 431 kts 241°
2026-04-26 03:43 29.00013 -126.14287 31964 ft 432 kts 241°
2026-04-26 03:43 28.96726 -126.20020 31964 ft 432 kts 241°
2026-04-26 03:44 28.93430 -126.25759 31964 ft 432 kts 241°
2026-04-26 03:44 28.90130 -126.31498 31965 ft 432 kts 241°
2026-04-26 03:45 28.86823 -126.37239 31964 ft 433 kts 241°
2026-04-26 03:45 28.83511 -126.42983 31964 ft 433 kts 241°
2026-04-26 03:46 28.80191 -126.48733 31963 ft 433 kts 241°
2026-04-26 03:47 28.75209 -126.57346 31964 ft 434 kts 241°
2026-04-26 03:47 28.71901 -126.63056 31963 ft 434 kts 240°
2026-04-26 03:48 28.68569 -126.68797 31963 ft 434 kts 240°
2026-04-26 03:48 28.65236 -126.74534 31964 ft 434 kts 240°
2026-04-26 03:49 28.61899 -126.80271 31964 ft 434 kts 240°
2026-04-26 03:49 28.58563 -126.85996 31964 ft 435 kts 240°
2026-04-26 03:50 28.55213 -126.91739 31964 ft 435 kts 240°
2026-04-26 03:50 28.51861 -126.97477 31963 ft 435 kts 240°
2026-04-26 03:51 28.48526 -127.03178 31963 ft 435 kts 240°
2026-04-26 03:51 28.45166 -127.08913 31963 ft 436 kts 240°
2026-04-26 03:52 28.41800 -127.14653 31964 ft 437 kts 240°
2026-04-26 03:52 28.38426 -127.20398 31964 ft 437 kts 240°
2026-04-26 03:53 28.35046 -127.26143 31963 ft 437 kts 240°
2026-04-26 03:53 28.31664 -127.31887 31964 ft 438 kts 240°
2026-04-26 03:54 28.28278 -127.37629 31963 ft 438 kts 240°
2026-04-26 03:54 28.24878 -127.43388 31963 ft 438 kts 240°
2026-04-26 03:55 28.21481 -127.49131 31963 ft 439 kts 240°
2026-04-26 03:55 28.18079 -127.54878 31963 ft 439 kts 240°
2026-04-26 03:56 28.14692 -127.60591 31964 ft 440 kts 240°
2026-04-26 03:56 28.11274 -127.66347 31964 ft 440 kts 240°
2026-04-26 03:57 28.07855 -127.72098 31963 ft 440 kts 240°
2026-04-26 03:57 28.04429 -127.77854 31963 ft 441 kts 240°
2026-04-26 03:58 28.01002 -127.83604 31963 ft 441 kts 240°
2026-04-26 03:58 27.97564 -127.89364 31963 ft 441 kts 240°
2026-04-26 03:59 27.94131 -127.95107 31964 ft 441 kts 240°
2026-04-26 03:59 27.90688 -128.00860 31963 ft 441 kts 240°
2026-04-26 04:00 27.87264 -128.06575 31964 ft 441 kts 240°
2026-04-26 04:00 27.83821 -128.12313 31963 ft 441 kts 240°
2026-04-26 04:01 27.80937 -128.17113 31971 ft 441 kts 240°
2026-04-26 04:01 27.77487 -128.22847 31977 ft 442 kts 240°
2026-04-26 04:02 27.74027 -128.28593 31977 ft 442 kts 240°
2026-04-26 04:02 27.70567 -128.34330 31977 ft 442 kts 240°
2026-04-26 04:03 27.67104 -128.40065 31977 ft 442 kts 239°
2026-04-26 04:03 27.63639 -128.45795 31977 ft 443 kts 239°
2026-04-26 04:04 27.60189 -128.51492 31978 ft 443 kts 239°
2026-04-26 04:04 27.56713 -128.57227 31978 ft 444 kts 239°
2026-04-26 04:05 27.53224 -128.62974 31978 ft 444 kts 239°
2026-04-26 04:05 27.49733 -128.68716 31974 ft 444 kts 239°
2026-04-26 04:06 27.46238 -128.74459 31972 ft 445 kts 239°
2026-04-26 04:06 27.42734 -128.80208 31972 ft 445 kts 239°
2026-04-26 04:07 27.39227 -128.85956 31973 ft 446 kts 239°
2026-04-26 04:07 27.35714 -128.91704 31972 ft 446 kts 239°
2026-04-26 04:08 27.32201 -128.97446 31972 ft 446 kts 239°
2026-04-26 04:08 27.28676 -129.03200 31972 ft 447 kts 239°
2026-04-26 04:09 27.25150 -129.08947 31974 ft 447 kts 239°
2026-04-26 04:09 27.21618 -129.14697 31973 ft 447 kts 239°
2026-04-26 04:10 27.18081 -129.20448 31972 ft 448 kts 239°
2026-04-26 04:10 27.14563 -129.26161 31977 ft 447 kts 239°
2026-04-26 04:11 27.11018 -129.31909 31984 ft 448 kts 239°
2026-04-26 04:11 27.07462 -129.37669 31985 ft 449 kts 239°
2026-04-26 04:12 27.03899 -129.43431 31985 ft 449 kts 239°
2026-04-26 04:12 27.00335 -129.49189 31985 ft 450 kts 239°
2026-04-26 04:13 26.96764 -129.54951 31985 ft 450 kts 239°
2026-04-26 04:13 26.93189 -129.60712 31985 ft 450 kts 238°
2026-04-26 04:14 26.89606 -129.66476 31986 ft 451 kts 238°
2026-04-26 04:14 26.86021 -129.72238 31986 ft 451 kts 238°
2026-04-26 04:15 26.82427 -129.78007 31986 ft 452 kts 238°
2026-04-26 04:15 26.78850 -129.83742 32004 ft 453 kts 238°
2026-04-26 04:16 26.75239 -129.89521 32004 ft 453 kts 238°
2026-04-26 04:16 26.71631 -129.95291 32004 ft 453 kts 238°
2026-04-26 04:17 26.68008 -130.01076 32004 ft 453 kts 238°
2026-04-26 04:17 26.64380 -130.06862 32004 ft 455 kts 238°
2026-04-26 04:18 26.60740 -130.12659 32005 ft 456 kts 238°
2026-04-26 04:18 26.57101 -130.18449 32005 ft 456 kts 238°
2026-04-26 04:19 26.53447 -130.24253 32005 ft 456 kts 238°
2026-04-26 04:19 26.49804 -130.30034 32005 ft 456 kts 238°
2026-04-26 04:20 26.46152 -130.35820 32004 ft 456 kts 238°
2026-04-26 04:20 26.42501 -130.41598 32005 ft 456 kts 238°
2026-04-26 04:21 26.38867 -130.47342 32006 ft 456 kts 238°
2026-04-26 04:21 26.35208 -130.53119 32006 ft 456 kts 238°
2026-04-26 04:22 26.31541 -130.58900 32006 ft 457 kts 238°
2026-04-26 04:22 26.27871 -130.64680 32006 ft 457 kts 238°
2026-04-26 04:23 26.24200 -130.70452 32006 ft 457 kts 238°
2026-04-26 04:23 26.20522 -130.76230 32007 ft 457 kts 238°
2026-04-26 04:24 26.16842 -130.82002 32007 ft 457 kts 238°
2026-04-26 04:24 26.13157 -130.87777 32007 ft 457 kts 238°
2026-04-26 04:25 26.09492 -130.93511 32006 ft 457 kts 238°
2026-04-26 04:25 26.05803 -130.99276 32006 ft 458 kts 238°
2026-04-26 04:26 26.02107 -131.05046 32007 ft 458 kts 238°
2026-04-26 04:26 25.98413 -131.10805 32007 ft 458 kts 238°
2026-04-26 04:27 25.94704 -131.16579 32008 ft 459 kts 237°
2026-04-26 04:27 25.90991 -131.22353 32008 ft 459 kts 237°
2026-04-26 04:28 25.87274 -131.28127 32008 ft 460 kts 238°
2026-04-26 04:28 25.83549 -131.33905 32007 ft 461 kts 237°
2026-04-26 04:29 25.79815 -131.39689 32007 ft 461 kts 237°
2026-04-26 04:29 25.76078 -131.45472 32008 ft 461 kts 238°
2026-04-26 04:30 25.72341 -131.51248 32008 ft 461 kts 237°
2026-04-26 04:30 25.68601 -131.57020 32009 ft 461 kts 237°
2026-04-26 04:31 25.64856 -131.62795 32009 ft 461 kts 237°
2026-04-26 04:31 25.61111 -131.68560 32009 ft 461 kts 237°
2026-04-26 04:32 25.57386 -131.74289 32002 ft 461 kts 237°
2026-04-26 04:32 25.53611 -131.80088 32003 ft 461 kts 237°
2026-04-26 04:33 25.49885 -131.85803 32007 ft 461 kts 237°
2026-04-26 04:33 25.46147 -131.91563 32008 ft 461 kts 237°
2026-04-26 04:34 25.42390 -131.97315 32007 ft 461 kts 237°
2026-04-26 04:34 25.38624 -132.03059 32007 ft 461 kts 237°
2026-04-26 04:35 25.34850 -132.08811 32007 ft 462 kts 237°
2026-04-26 04:35 25.31075 -132.14560 32007 ft 462 kts 237°
2026-04-26 04:36 25.27298 -132.20309 32008 ft 462 kts 237°
2026-04-26 04:36 25.23517 -132.26046 32008 ft 462 kts 237°
2026-04-26 04:37 25.19735 -132.31774 32009 ft 462 kts 237°
2026-04-26 04:37 25.15947 -132.37506 32009 ft 462 kts 237°
2026-04-26 04:38 25.12183 -132.43193 32009 ft 461 kts 237°
2026-04-26 04:38 25.08406 -132.48913 32009 ft 461 kts 237°
2026-04-26 04:39 25.04642 -132.54647 32008 ft 461 kts 237°
2026-04-26 04:39 25.00863 -132.60375 32009 ft 461 kts 237°
2026-04-26 04:40 24.97078 -132.66093 32009 ft 461 kts 237°
2026-04-26 04:40 24.93290 -132.71806 32010 ft 462 kts 237°
2026-04-26 04:41 24.89494 -132.77523 32010 ft 462 kts 237°
2026-04-26 04:41 24.85692 -132.83240 32010 ft 462 kts 237°
2026-04-26 04:42 24.81896 -132.88943 32011 ft 462 kts 237°
2026-04-26 04:42 24.78092 -132.94650 32011 ft 462 kts 237°
2026-04-26 04:43 24.74288 -133.00350 32011 ft 462 kts 237°
2026-04-26 04:43 24.70498 -133.06023 32013 ft 463 kts 236°
2026-04-26 04:44 24.66680 -133.11730 32015 ft 463 kts 236°
2026-04-26 04:44 24.62864 -133.17427 32016 ft 463 kts 236°
2026-04-26 04:45 24.59047 -133.23121 32016 ft 463 kts 236°
2026-04-26 04:45 24.55222 -133.28819 32017 ft 464 kts 236°
2026-04-26 04:46 24.51392 -133.34517 32017 ft 464 kts 236°
2026-04-26 04:46 24.47556 -133.40219 32016 ft 464 kts 236°
2026-04-26 04:47 24.43720 -133.45913 32016 ft 464 kts 236°
2026-04-26 04:47 24.40522 -133.50655 32017 ft 464 kts 236°
2026-04-26 04:48 24.34134 -133.60115 32017 ft 464 kts 236°
2026-04-26 04:48 24.30284 -133.65807 32017 ft 464 kts 236°
2026-04-26 04:49 24.27054 -133.70577 32018 ft 465 kts 236°
2026-04-26 04:49 24.23196 -133.76268 32018 ft 465 kts 236°
2026-04-26 04:50 24.19363 -133.81917 32018 ft 465 kts 236°
2026-04-26 04:50 24.15497 -133.87607 32018 ft 465 kts 236°
2026-04-26 04:51 24.11638 -133.93281 32018 ft 465 kts 236°
2026-04-26 04:51 24.07771 -133.98960 32020 ft 465 kts 236°
2026-04-26 04:52 24.03907 -134.04628 32021 ft 465 kts 236°
2026-04-26 04:52 24.00036 -134.10299 32018 ft 465 kts 236°
2026-04-26 04:53 23.96167 -134.15961 32017 ft 465 kts 236°
2026-04-26 04:53 23.92314 -134.21595 32017 ft 465 kts 236°
2026-04-26 04:54 23.88444 -134.27246 32017 ft 465 kts 236°
2026-04-26 04:54 23.84565 -134.32903 32018 ft 465 kts 236°
2026-04-26 04:55 23.80683 -134.38560 32018 ft 465 kts 236°
2026-04-26 04:55 23.76799 -134.44212 32019 ft 465 kts 236°
2026-04-26 04:56 23.72912 -134.49862 32019 ft 465 kts 236°
2026-04-26 04:56 23.69020 -134.55514 32020 ft 465 kts 236°
2026-04-26 04:57 23.65132 -134.61152 32020 ft 465 kts 236°
2026-04-26 04:57 23.61238 -134.66794 32020 ft 465 kts 236°
2026-04-26 04:58 23.57351 -134.72419 32020 ft 465 kts 236°
2026-04-26 04:58 23.53484 -134.78008 32021 ft 465 kts 236°
2026-04-26 04:59 23.49589 -134.83633 32021 ft 465 kts 236°
2026-04-26 04:59 23.45694 -134.89250 32021 ft 464 kts 236°
2026-04-26 05:00 23.41800 -134.94861 32020 ft 464 kts 236°
2026-04-26 05:00 23.37901 -135.00472 32020 ft 464 kts 236°
2026-04-26 05:01 23.34000 -135.06079 32020 ft 465 kts 236°
2026-04-26 05:01 23.30094 -135.11689 32020 ft 465 kts 236°
2026-04-26 05:02 23.26190 -135.17289 32020 ft 464 kts 236°
2026-04-26 05:02 23.22278 -135.22894 32020 ft 465 kts 236°
2026-04-26 05:03 23.18373 -135.28484 32021 ft 465 kts 235°
2026-04-26 05:03 23.14465 -135.34072 32021 ft 464 kts 236°
2026-04-26 05:04 23.10560 -135.39648 32022 ft 464 kts 236°
2026-04-26 05:04 23.06653 -135.45222 32017 ft 464 kts 235°
2026-04-26 05:05 23.02766 -135.50761 32017 ft 464 kts 235°
2026-04-26 05:05 22.98853 -135.56332 32018 ft 464 kts 235°
2026-04-26 05:06 22.94942 -135.61894 32013 ft 463 kts 235°
2026-04-26 05:06 22.91038 -135.67438 32012 ft 463 kts 235°
2026-04-26 05:07 22.87125 -135.72991 32012 ft 462 kts 235°
2026-04-26 05:07 22.83222 -135.78524 32012 ft 462 kts 236°
2026-04-26 05:08 22.79317 -135.84053 32012 ft 462 kts 235°
2026-04-26 05:08 22.75416 -135.89570 32012 ft 461 kts 235°
2026-04-26 05:09 22.71518 -135.95078 32014 ft 460 kts 235°
2026-04-26 05:09 22.67622 -136.00578 32014 ft 460 kts 235°
2026-04-26 05:10 22.63722 -136.06077 32014 ft 461 kts 235°
2026-04-26 05:10 22.59814 -136.11581 32014 ft 461 kts 235°
2026-04-26 05:11 22.55924 -136.17054 32014 ft 461 kts 235°
2026-04-26 05:11 22.51991 -136.22582 32016 ft 461 kts 235°
2026-04-26 05:12 22.48107 -136.28035 32013 ft 460 kts 235°
2026-04-26 05:12 22.44202 -136.33514 32024 ft 460 kts 235°
2026-04-26 05:13 22.40291 -136.38994 32025 ft 460 kts 235°
2026-04-26 05:13 22.36383 -136.44464 32025 ft 460 kts 235°
2026-04-26 05:14 22.32466 -136.49942 32025 ft 461 kts 235°
2026-04-26 05:14 22.28546 -136.55417 32025 ft 461 kts 235°
2026-04-26 05:15 22.24622 -136.60892 32027 ft 461 kts 235°
2026-04-26 05:15 22.20695 -136.66368 32035 ft 461 kts 235°
2026-04-26 05:16 22.16759 -136.71848 32035 ft 462 kts 235°
2026-04-26 05:16 22.12823 -136.77324 32035 ft 462 kts 235°
2026-04-26 05:17 22.08884 -136.82798 32036 ft 462 kts 235°
2026-04-26 05:17 22.04936 -136.88280 32035 ft 463 kts 235°
2026-04-26 05:18 22.00988 -136.93756 32034 ft 463 kts 235°
2026-04-26 05:18 21.97030 -136.99239 32035 ft 463 kts 235°
2026-04-26 05:19 21.93082 -137.04704 32035 ft 462 kts 235°
2026-04-26 05:19 21.89151 -137.10138 32035 ft 463 kts 234°
2026-04-26 05:20 21.85191 -137.15608 32035 ft 463 kts 234°
2026-04-26 05:20 21.81226 -137.21080 32035 ft 464 kts 234°
2026-04-26 05:21 21.77256 -137.26553 32035 ft 464 kts 234°
2026-04-26 05:21 21.73279 -137.32029 32036 ft 465 kts 234°
2026-04-26 05:22 21.69303 -137.37500 32036 ft 465 kts 234°
2026-04-26 05:22 21.65316 -137.42979 32037 ft 465 kts 234°
2026-04-26 05:23 21.61330 -137.48451 32036 ft 465 kts 234°
2026-04-26 05:23 21.57340 -137.53923 32036 ft 465 kts 234°
2026-04-26 05:24 21.53347 -137.59395 32037 ft 465 kts 234°
2026-04-26 05:24 21.49350 -137.64867 32038 ft 466 kts 234°
2026-04-26 05:25 21.45350 -137.70336 32038 ft 466 kts 234°
2026-04-26 05:25 21.41373 -137.75771 32041 ft 466 kts 234°
2026-04-26 05:26 21.37364 -137.81242 32042 ft 466 kts 234°
2026-04-26 05:26 21.33358 -137.86704 32042 ft 466 kts 234°
2026-04-26 05:27 21.29353 -137.92159 32043 ft 465 kts 234°
2026-04-26 05:27 21.25349 -137.97608 32043 ft 465 kts 234°
2026-04-26 05:28 21.21348 -138.03047 32044 ft 465 kts 234°
2026-04-26 05:28 21.17330 -138.08504 32044 ft 467 kts 234°
2026-04-26 05:29 21.13306 -138.13963 32044 ft 467 kts 234°
2026-04-26 05:29 21.09280 -138.19421 32043 ft 466 kts 234°
2026-04-26 05:30 21.05260 -138.24865 32044 ft 466 kts 234°
2026-04-26 05:30 21.01258 -138.30279 32044 ft 467 kts 234°
2026-04-26 05:31 20.97232 -138.35721 32045 ft 467 kts 234°
2026-04-26 05:31 20.93197 -138.41169 32046 ft 467 kts 234°
2026-04-26 05:32 20.89166 -138.46605 32045 ft 466 kts 234°
2026-04-26 05:32 20.85136 -138.52037 32049 ft 465 kts 234°
2026-04-26 05:33 20.81112 -138.57454 32050 ft 465 kts 234°
2026-04-26 05:33 20.77082 -138.62875 32050 ft 466 kts 234°
2026-04-26 05:34 20.73055 -138.68287 32051 ft 466 kts 234°
2026-04-26 05:34 20.69021 -138.73702 32051 ft 466 kts 234°
2026-04-26 05:35 20.64988 -138.79112 32051 ft 466 kts 234°
2026-04-26 05:35 20.60952 -138.84521 32051 ft 466 kts 234°
2026-04-26 05:36 20.57595 -138.89014 32051 ft 466 kts 234°
2026-04-26 05:36 20.53556 -138.94418 32076 ft 465 kts 233°
2026-04-26 05:37 20.48868 -139.00683 32163 ft 465 kts 233°
2026-04-26 05:37 20.45476 -139.05212 32167 ft 465 kts 233°
2026-04-26 05:38 20.41443 -139.10604 32113 ft 465 kts 234°
2026-04-26 05:38 20.37437 -139.15954 32019 ft 465 kts 233°
2026-04-26 05:39 20.33400 -139.21323 32007 ft 465 kts 233°
2026-04-26 05:39 20.29354 -139.26697 32007 ft 465 kts 233°
2026-04-26 05:40 20.25307 -139.32070 32007 ft 464 kts 233°
2026-04-26 05:40 20.21272 -139.37428 32008 ft 464 kts 233°
2026-04-26 05:41 20.17225 -139.42781 32009 ft 464 kts 233°
2026-04-26 05:41 20.13180 -139.48126 32007 ft 463 kts 233°
2026-04-26 05:42 20.09135 -139.53467 32007 ft 463 kts 233°
2026-04-26 05:42 20.05088 -139.58806 32007 ft 463 kts 233°
2026-04-26 05:43 20.01067 -139.64108 32007 ft 462 kts 233°
2026-04-26 05:43 19.97048 -139.69443 32008 ft 463 kts 234°
2026-04-26 05:44 19.93015 -139.74777 32008 ft 462 kts 233°
2026-04-26 05:44 19.88986 -139.80093 32013 ft 462 kts 233°
2026-04-26 05:45 19.84952 -139.85408 32013 ft 462 kts 233°
2026-04-26 05:45 19.80918 -139.90715 32013 ft 462 kts 233°
2026-04-26 05:46 19.76880 -139.96023 32013 ft 462 kts 233°
2026-04-26 05:46 19.72841 -140.01327 32012 ft 462 kts 233°
2026-04-26 05:47 19.68796 -140.06634 32012 ft 462 kts 233°
2026-04-26 05:47 19.64770 -140.11911 32013 ft 463 kts 233°
2026-04-26 05:48 19.60717 -140.17219 32013 ft 463 kts 233°
2026-04-26 05:48 19.56663 -140.22524 32014 ft 463 kts 233°
2026-04-26 05:49 19.50565 -140.30494 32013 ft 464 kts 233°
2026-04-26 05:50 19.46493 -140.35810 32013 ft 464 kts 233°
2026-04-26 05:50 19.42427 -140.41115 32014 ft 464 kts 233°
2026-04-26 05:51 19.38380 -140.46388 32014 ft 464 kts 233°
2026-04-26 05:51 19.34308 -140.51692 32013 ft 465 kts 233°
2026-04-26 05:52 19.30223 -140.57006 32013 ft 465 kts 233°
2026-04-26 05:52 19.26136 -140.62318 32013 ft 465 kts 233°
2026-04-26 05:53 19.22039 -140.67639 32014 ft 466 kts 233°
2026-04-26 05:53 19.17948 -140.72948 32014 ft 466 kts 233°
2026-04-26 05:54 19.13849 -140.78262 32014 ft 466 kts 233°
2026-04-26 05:54 19.09753 -140.83568 32023 ft 466 kts 233°
2026-04-26 05:55 19.05651 -140.88878 32029 ft 466 kts 233°
2026-04-26 05:55 19.01547 -140.94184 32029 ft 466 kts 233°
2026-04-26 05:56 18.97467 -140.99455 32018 ft 466 kts 233°
2026-04-26 05:56 18.93355 -141.04764 32018 ft 467 kts 233°
2026-04-26 05:57 18.89242 -141.10069 32018 ft 467 kts 233°
2026-04-26 05:57 18.85125 -141.15374 32018 ft 467 kts 233°
2026-04-26 05:58 18.81006 -141.20678 32018 ft 467 kts 233°
2026-04-26 05:58 18.76888 -141.25976 32018 ft 467 kts 233°
2026-04-26 05:59 18.72760 -141.31281 32018 ft 467 kts 233°
2026-04-26 05:59 18.68640 -141.36573 32019 ft 467 kts 233°
2026-04-26 06:00 18.64545 -141.41828 32029 ft 467 kts 233°
2026-04-26 06:00 18.60417 -141.47120 32030 ft 467 kts 233°
2026-04-26 06:01 18.56293 -141.52404 32030 ft 467 kts 233°
2026-04-26 06:01 18.52155 -141.57699 32029 ft 468 kts 233°
2026-04-26 06:02 18.48023 -141.62984 32030 ft 467 kts 233°
2026-04-26 06:02 18.43889 -141.68266 32031 ft 467 kts 232°
2026-04-26 06:03 18.39757 -141.73542 32032 ft 467 kts 232°
2026-04-26 06:03 18.35624 -141.78815 32030 ft 467 kts 232°
2026-04-26 06:04 18.31514 -141.84054 32030 ft 468 kts 232°
2026-04-26 06:04 18.27371 -141.89330 32030 ft 467 kts 232°
2026-04-26 06:05 18.23236 -141.94593 32031 ft 467 kts 232°
2026-04-26 06:05 18.19095 -141.99858 32031 ft 467 kts 232°
2026-04-26 06:06 18.14957 -142.05114 32031 ft 467 kts 232°
2026-04-26 06:06 18.10809 -142.10381 32031 ft 467 kts 232°
2026-04-26 06:07 18.06661 -142.15642 32032 ft 467 kts 232°
2026-04-26 06:07 18.02516 -142.20894 32032 ft 467 kts 232°
2026-04-26 06:08 17.98395 -142.26113 32032 ft 467 kts 232°
2026-04-26 06:08 17.94250 -142.31358 32032 ft 467 kts 232°
2026-04-26 06:09 17.90098 -142.36607 32032 ft 467 kts 232°
2026-04-26 06:09 17.85945 -142.41854 32033 ft 468 kts 232°
2026-04-26 06:10 17.81780 -142.47111 32033 ft 468 kts 232°
2026-04-26 06:10 17.77615 -142.52364 32033 ft 468 kts 232°
2026-04-26 06:11 17.73451 -142.57611 32033 ft 468 kts 232°
2026-04-26 06:11 17.69281 -142.62863 32033 ft 469 kts 232°
2026-04-26 06:12 17.65104 -142.68118 32033 ft 469 kts 232°
2026-04-26 06:12 17.60924 -142.73373 32033 ft 469 kts 232°
2026-04-26 06:13 17.56769 -142.78593 32032 ft 469 kts 232°
2026-04-26 06:13 17.52582 -142.83848 32032 ft 470 kts 232°
2026-04-26 06:14 17.48395 -142.89100 32032 ft 470 kts 232°
2026-04-26 06:14 17.44202 -142.94354 32032 ft 470 kts 232°
2026-04-26 06:15 17.40002 -142.99614 32033 ft 471 kts 232°
2026-04-26 06:15 17.35781 -143.04895 32033 ft 473 kts 232°
2026-04-26 06:16 17.31551 -143.10183 32033 ft 473 kts 232°
2026-04-26 06:16 17.27354 -143.15427 32033 ft 473 kts 232°
2026-04-26 06:17 17.23123 -143.20708 32033 ft 473 kts 232°
2026-04-26 06:17 17.18897 -143.25979 32033 ft 473 kts 232°
2026-04-26 06:18 17.14661 -143.31259 32033 ft 473 kts 232°
2026-04-26 06:18 17.10423 -143.36538 32033 ft 473 kts 232°
2026-04-26 06:19 17.06186 -143.41810 32033 ft 473 kts 232°
2026-04-26 06:19 17.01955 -143.47071 32033 ft 474 kts 232°
2026-04-26 06:20 16.97734 -143.52315 32033 ft 474 kts 232°
2026-04-26 06:20 16.93474 -143.57604 32034 ft 475 kts 232°
2026-04-26 06:21 16.89226 -143.62875 32034 ft 475 kts 232°